Weather Roundup
Issued by NWS Chicago, IL

Home | Current Version | Previous Version | Text Only | Print | Product List | Glossary On
Versions: 1 2 3 4 5 6 7 8 9 10 11 12 13 14 15 16 17 18 19 20 21 22 23 24 25 26 27 28 29 30 31 32 33 34 35 36 37 38 39 40 41 42 43 44 45 46 47 48 49 50
000
NZUS59 KLOT 231707
HRRLOT

CHICAGO AREA WEATHER ROUNDUP
NATIONAL WEATHER SERVICE CHICAGO/ROMEOVILLE IL
1200 PM CDT THU MAR 23 2017

NOTE: "FAIR" INDICATES FEW OR NO CLOUDS BELOW 12,000 FEET WITH NO
SIGNIFICANT WEATHER AND/OR OBSTRUCTIONS TO VISIBILITY.

* THESE STATIONS ARE NOT UNDER NWS QUALITY CONTROL. THEY ALSO MAY NOT
  REPORT WEATHER SUCH AS PRECIPITATION OR FOG.

ILZ005-006-012>014-019>023-231800-
NORTHEAST ILLINOIS

CITY           SKY/WX    TMP DP  RH WIND       PRES   REMARKS
OHARE          MOSUNNY   44  21  40 SE15      30.34F
MIDWAY         MOSUNNY   42  21  43 SE12      30.36F
AURORA         CLOUDY    45  24  43 SE15G22   30.32F
LANSING*       MOSUNNY   41  26  55 SE15      30.37F
JOLIET*        SUNNY     45  26  46 S13G20    30.35F
WAUKEGAN       MOSUNNY   38  24  57 SE16      30.34F
DUPAGE AIRPORT   N/A     45  23  42 S15G23    30.32F
WHEELING       SUNNY     42  21  43 S14       30.35F
KANKAKEE*      CLOUDY    46  25  43 SE15      30.36F
MORRIS*        CLOUDY    41  24  49 S14       30.32F
LEWIS AIRPORT* PTSUNNY   43  29  57 SE17      30.33F
NORTHERLY ISL    N/A     40  23  51 SE12        N/A
$$

WIZ051-052-058>065-066-070>072-231800-
SOUTHEAST WISCONSIN

CITY           SKY/WX    TMP DP  RH WIND       PRES   REMARKS
MILWAUKEE      PTSUNNY   40  22  48 S21       30.34F
KENOSHA*       MOSUNNY   39  24  55 S16G24    30.33F
RACINE*        CLOUDY    38  22  52 S21G28    30.36F
WEST BEND      PTSUNNY   39  25  56 S9        30.31F
$$

INZ001>003-010>013-019-020-231800-
NORTHWEST INDIANA

CITY           SKY/WX    TMP DP  RH WIND       PRES   REMARKS
GARY*          PTSUNNY   41  16  36 S14       30.38F
MICHIGAN CITY* NOT AVBL
RENSSELAER*    NOT AVBL
VALPARAISO     CLOUDY    40  21  46 SE15      30.38F
$$

LMZ740>746-231800-
SOUTHERN LAKE MICHIGAN

STATION/POSITION TIME  SKY/WX   TEMP WIND        PRES    VSBY
                                AIR  DIR/SP/G
                 (UTC)          (F)  (DEG/KT/KT) (MB)    (MI)
HARRISON CRIB    1640            36  150/ 13/ 17   N/A
BURNHAM HARBOR   1700            40  120/ 12       N/A
CALUMET HARBOR   1642            38  140/ 10/ 15 1027.7F
BURNS HARBOR     1630            37  170/ 11/ 18 1029.8S
MICHIGAN CITY    1640            35  150/ 14/ 17   N/A
$$

ABBREVIATIONS USED IN REMARKS
   TC - TEMPERATURE IN CELSIUS
  WCI - WIND CHILL INDEX
   HX - HEAT INDEX
  VSB - VISIBILITY
$$




USA.gov is the U.S. government's official web portal to all federal, state and local government web resources and services.